FW0639 Weather Reports


time (UTC)temp
C
wind
direction
speed
KPH
gust
KPH
rain 1hr
cm
rain 24hr
cm
rain mn
cm
humidity
%
barometer
mb
20260905045907 14 332 0.0 0.0 0.00 0.00 0.00 58 1009.6
20260905043759 15 332 0.0 3.2 0.00 0.00 0.00 56 1009.4
20260905042756 15 332 0.0 0.0 0.00 0.00 0.00 55 1008.9
20260905041745 16 332 0.0 1.6 0.00 0.00 0.00 51 1008.9
20260905040712 16 332 0.0 0.0 0.00 0.00 0.00 50 1009.0
20260905035735 17 332 0.0 0.0 0.00 0.00 0.00 50 1008.9
20260905034723 17 332 0.0 0.0 0.00 0.00 0.00 46 1008.7
20260905033712 18 332 0.0 0.0 0.00 0.00 0.00 45 1008.4
20260905032707 18 332 0.0 1.6 0.00 0.00 0.00 44 1008.1
20260905031646 18 332 0.0 3.2 0.00 0.00 0.00 44 1008.0
20260905030637 18 332 0.0 0.0 0.00 0.00 0.00 43 1008.0
20260905025648 18 332 0.0 0.0 0.00 0.00 0.00 43 1008.0
20260905024712 18 332 0.0 0.0 0.00 0.00 0.00 44 1007.8
20260905023646 19 332 0.0 0.0 0.00 0.00 0.00 43 1007.8
20260905021505 20 332 0.0 0.0 0.00 0.00 0.00 42 1007.3
20260905020509 20 332 0.0 1.6 0.00 0.00 0.00 40 1007.2
20260905015512 20 332 0.0 0.0 0.00 0.00 0.00 40 1007.0
20260905013307 21 332 0.0 0.0 0.00 0.00 0.00 38 1006.4
20260905012236 22 332 0.0 3.2 0.00 0.00 0.00 36 1006.3
20260905011248 22 332 0.0 6.4 0.00 0.00 0.00 35 1006.1
20260905005119 23 332 1.6 11.3 0.00 0.00 0.00 32 1005.7
20260905004110 23 340 1.6 9.7 0.00 0.00 0.00 34 1005.5
20260905003112 23 340 1.6 6.4 0.00 0.00 0.00 35 1005.6
20260905000939 23 342 1.6 14.5 0.00 0.00 0.00 33 1005.4
20260904235921 23 345 1.6 14.5 0.00 0.00 0.00 35 1005.2
20260904234945 24 342 1.6 11.3 0.00 0.00 0.00 35 1005.1
20260904233948 24 347 1.6 11.3 0.00 0.00 0.00 33 1005.0
20260904232922 25 3 1.6 8.0 0.00 0.00 0.00 32 1004.9
20260904230843 25 280 1.6 11.3 0.00 0.00 0.00 33 1004.7
20260904225809 26 49 3.2 16.1 0.00 0.00 0.00 31 1004.7
20260904224746 26 128 3.2 16.1 0.00 0.00 0.00 32 1004.5
20260904223801 26 272 1.6 12.9 0.00 0.00 0.00 33 1004.5
20260904220558 26 148 1.6 14.5 0.00 0.00 0.00 32 1004.1
20260904215621 26 336 3.2 9.7 0.00 0.00 0.00 30 1004.0
20260904214620 26 328 1.6 12.9 0.00 0.00 0.00 28 1003.8
20260904213614 26 359 3.2 12.9 0.00 0.00 0.00 31 1003.7
20260904212541 26 328 1.6 14.5 0.00 0.00 0.00 30 1003.7
20260904211527 26 195 1.6 14.5 0.00 0.00 0.00 30 1003.6
20260904210546 27 178 3.2 12.9 0.00 0.00 0.00 29 1003.5
20260904205543 27 344 1.6 12.9 0.00 0.00 0.00 30 1003.4
20260904204602 27 340 1.6 12.9 0.00 0.00 0.00 30 1003.3
20260904203548 27 289 1.6 6.4 0.00 0.00 0.00 31 1003.2
20260904202544 27 288 1.6 9.7 0.00 0.00 0.00 29 1003.3
20260904201513 27 279 1.6 9.7 0.00 0.00 0.00 29 1003.4
20260904195313 28 328 1.6 6.4 0.00 0.00 0.00 27 1003.2
20260904194311 27 342 0.0 4.8 0.00 0.00 0.00 29 1003.2
20260904191016 27 161 1.6 11.3 0.00 0.00 0.00 30 1003.3
20260904184917 27 143 3.2 17.7 0.00 0.00 0.00 28 1003.1
20260904183910 28 9 3.2 32.2 0.00 0.00 0.00 26 1003.0
20260904182842 29 124 8.0 32.2 0.00 0.00 0.00 20 1002.9
20260904181902 30 161 8.0 27.4 0.00 0.00 0.00 20 1002.7
20260904180841 30 213 8.0 20.9 0.00 0.00 0.00 20 1002.7
20260904175843 30 173 8.0 20.9 0.00 0.00 0.00 18 1002.7
20260904174828 30 129 6.4 19.3 0.00 0.00 0.00 19 1002.5
20260904173842 30 140 9.7 24.1 0.00 0.00 0.00 17 1002.4
20260904172838 29 123 6.4 24.1 0.00 0.00 0.00 19 1002.2
20260904171857 28 78 1.6 14.5 0.00 0.00 0.00 23 1002.1
20260904165805 24 52 0.0 6.4 0.00 0.00 0.00 36 1002.1
20260904164749 23 52 0.0 0.0 0.00 0.00 0.00 44 1002.1
20260904163733 23 52 0.0 0.0 0.00 0.00 0.00 50 1002.0
20260904162720 22 52 0.0 1.6 0.00 0.00 0.00 47 1002.0
20260904161709 21 51 0.0 0.0 0.00 0.00 0.00 47 1002.1
20260904155617 20 51 0.0 0.0 0.00 0.00 0.00 50 1002.1
20260904153457 20 52 0.0 0.0 0.00 0.00 0.00 47 1002.4
20260904152459 21 52 0.0 3.2 0.00 0.00 0.00 48 1002.4
20260904151448 21 52 1.6 11.3 0.00 0.00 0.00 46 1002.4
20260904150444 20 51 0.0 4.8 0.00 0.00 0.00 45 1002.4
20260904145421 20 346 1.6 11.3 0.00 0.00 0.00 44 1002.3
20260904144428 20 334 3.2 9.7 0.00 0.00 0.00 44 1002.4
20260904143424 19 333 1.6 9.7 0.00 0.00 0.00 44 1002.3
20260904141251 18 333 1.6 11.3 0.00 0.00 0.00 48 1002.2
20260904135200 18 333 0.0 0.0 0.00 0.00 0.00 50 1002.3
20260904134145 18 333 0.0 0.0 0.00 0.00 0.00 46 1002.4
20260904133208 18 333 0.0 3.2 0.00 0.00 0.00 45 1002.3
20260904132145 18 333 0.0 3.2 0.00 0.00 0.00 45 1002.3
20260904131138 18 333 0.0 9.7 0.00 0.00 0.00 44 1002.5
20260904130119 18 333 1.6 9.7 0.00 0.00 0.00 42 1002.4
20260904123958 18 335 0.0 11.3 0.00 0.00 0.00 39 1002.4
20260904122949 18 335 1.6 17.7 0.00 0.00 0.00 39 1002.5
20260904122013 18 335 1.6 17.7 0.00 0.00 0.00 40 1002.7
20260904121016 18 335 1.6 16.1 0.00 0.00 0.00 39 1002.8
20260904114854 18 334 4.8 19.3 0.00 0.00 0.00 38 1003.2
20260904113850 17 335 3.2 19.3 0.00 0.00 0.00 39 1003.2
20260904112902 18 336 0.0 6.4 0.00 0.00 0.00 39 1003.4
20260904111836 18 336 0.0 6.4 0.00 0.00 0.00 37 1003.5
20260904110835 18 336 1.6 6.4 0.00 0.00 0.00 37 1003.5
20260904104727 18 336 3.2 6.4 0.00 0.00 0.00 37 1003.9
20260904103704 18 337 3.2 6.4 0.00 0.00 0.00 38 1004.0
20260904102642 15 341 0.0 4.8 0.00 0.00 0.00 46 1004.0
20260904101608 14 346 0.0 0.0 0.00 0.00 0.00 52 1004.2
20260904100539 15 341 0.0 4.8 0.00 0.00 0.00 50 1004.2
20260904095517 15 340 0.0 0.0 0.00 0.00 0.00 49 1004.1
20260904093352 15 341 0.0 1.6 0.00 0.00 0.00 46 1004.1
20260904092403 14 51 0.0 0.0 0.00 0.00 0.00 51 1004.2
20260904091336 15 74 0.0 0.0 0.00 0.00 0.00 51 1004.3
20260904090325 15 342 0.0 0.0 0.00 0.00 0.00 47 1004.5
20260904085343 16 340 0.0 0.0 0.00 0.00 0.00 45 1004.5
20260904084342 16 339 0.0 0.0 0.00 0.00 0.00 44 1004.6
20260904083331 15 55 0.0 0.0 0.00 0.00 0.00 48 1004.5
20260904082335 15 72 0.0 0.0 0.00 0.00 0.00 54 1004.7
20260904081353 15 341 0.0 0.0 0.00 0.00 0.00 52 1004.6
20260904074044 15 336 1.6 11.3 0.00 0.00 0.00 48 1004.8
20260904073049 13 338 0.0 0.0 0.00 0.00 0.00 54 1004.8
20260904072020 13 118 0.0 6.4 0.00 0.00 0.00 61 1004.9
20260904070954 13 122 0.0 3.2 0.00 0.00 0.00 64 1005.0
20260904070004 13 121 0.0 0.0 0.00 0.00 0.00 64 1005.3
20260904065025 13 121 0.0 0.0 0.00 0.00 0.00 64 1005.4
20260904063955 13 124 0.0 3.2 0.00 0.00 0.00 62 1005.6
20260904063005 13 115 0.0 0.0 0.00 0.00 0.00 63 1005.4
20260904061954 13 99 0.0 0.0 0.00 0.00 0.00 63 1005.5
20260904061018 13 101 0.0 0.0 0.00 0.00 0.00 64 1005.5
20260904060012 13 110 0.0 1.6 0.00 0.00 0.00 62 1005.5
20260904055003 13 105 0.0 0.0 0.00 0.00 0.00 63 1005.6
20260904053933 13 109 0.0 0.0 0.00 0.00 0.00 63 1005.8
20260904051812 13 108 0.0 0.0 0.00 0.00 0.00 63 1006.0